Time,TemperatureF,DewpointF,PressureIn,WindDirection,WindDirectionDegrees,WindSpeedMPH,WindSpeedGustMPH,Humidity,HourlyPrecipIn,Conditions,Clouds,dailyrainin,SoftwareType,DateUTC
2013-11-29 00:00:00,28.4,24.2,39.16,East,90,0.0,0.0,78,0.00,,,0.01,fowsr,2013-11-29 05:00:00,
2013-11-29 00:05:00,28.4,24.4,38.78,East,90,0.0,0.0,79,0.00,,,0.01,fowsr,2013-11-29 05:05:00,
2013-11-29 00:10:00,28.4,24.4,39.16,East,90,0.0,0.0,79,0.00,,,0.01,fowsr,2013-11-29 05:10:00,
2013-11-29 00:15:00,28.4,24.4,39.16,East,90,0.0,0.0,79,0.00,,,0.01,fowsr,2013-11-29 05:15:00,
2013-11-29 00:20:00,28.4,24.4,39.16,East,90,0.0,0.0,79,0.00,,,0.01,fowsr,2013-11-29 05:20:00,
2013-11-29 00:25:00,28.4,24.4,39.16,East,90,0.0,0.0,79,0.00,,,0.01,fowsr,2013-11-29 05:25:00,
2013-11-29 00:30:00,28.2,23.4,39.16,East,90,0.0,0.0,75,0.00,,,0.01,fowsr,2013-11-29 05:30:00,
2013-11-29 00:35:00,28.2,23.4,39.16,East,90,0.0,0.0,75,0.00,,,0.01,fowsr,2013-11-29 05:35:00,
2013-11-29 00:40:00,28.0,23.2,39.16,East,90,0.0,0.0,75,0.00,,,0.01,fowsr,2013-11-29 05:40:00,
2013-11-29 00:45:00,28.0,23.4,39.16,East,90,0.0,0.0,76,0.00,,,0.01,fowsr,2013-11-29 05:45:00,
2013-11-29 00:50:00,27.9,23.2,39.16,East,90,0.0,0.0,76,0.00,,,0.01,fowsr,2013-11-29 05:50:00,
2013-11-29 00:55:00,27.9,23.2,39.16,East,90,0.0,0.0,76,0.00,,,0.01,fowsr,2013-11-29 05:55:00,
2013-11-29 01:00:00,27.7,23.1,39.16,East,90,0.0,0.0,76,0.00,,,0.01,fowsr,2013-11-29 06:00:00,
2013-11-29 01:05:00,27.7,23.1,39.16,East,90,0.0,0.0,76,0.00,,,0.01,fowsr,2013-11-29 06:05:00,
2013-11-29 01:10:00,27.5,23.1,39.16,East,90,0.0,0.0,77,0.00,,,0.01,fowsr,2013-11-29 06:10:00,
2013-11-29 01:15:00,27.5,23.1,39.16,East,90,0.0,0.0,77,0.00,,,0.01,fowsr,2013-11-29 06:15:00,
2013-11-29 01:20:00,27.5,23.1,39.16,East,90,0.0,0.0,77,0.00,,,0.01,fowsr,2013-11-29 06:20:00,
2013-11-29 01:25:00,27.3,23.1,39.16,East,90,0.0,0.0,78,0.00,,,0.01,fowsr,2013-11-29 06:25:00,
2013-11-29 01:30:00,27.3,23.1,39.16,East,90,0.0,0.0,78,0.00,,,0.01,fowsr,2013-11-29 06:30:00,
2013-11-29 01:35:00,27.1,23.0,39.16,East,90,0.0,0.0,78,0.00,,,0.01,fowsr,2013-11-29 06:35:00,
2013-11-29 01:40:00,27.1,23.0,39.16,East,90,0.0,0.0,78,0.00,,,0.01,fowsr,2013-11-29 06:40:00,
2013-11-29 01:45:00,27.0,22.8,39.16,East,90,0.0,0.0,78,0.00,,,0.01,fowsr,2013-11-29 06:45:00,
2013-11-29 01:50:00,27.0,23.0,39.16,East,90,0.0,0.0,79,0.00,,,0.01,fowsr,2013-11-29 06:50:00,
2013-11-29 01:55:00,26.8,22.8,39.16,East,90,0.0,0.0,79,0.00,,,0.01,fowsr,2013-11-29 06:55:00,
2013-11-29 02:00:00,26.8,22.8,39.16,East,90,0.0,0.0,79,0.00,,,0.01,fowsr,2013-11-29 07:00:00,
2013-11-29 02:05:00,26.8,22.8,39.16,East,90,0.0,0.0,79,0.00,,,0.01,fowsr,2013-11-29 07:05:00,
2013-11-29 02:10:00,26.8,22.8,39.16,East,90,0.0,0.0,79,0.00,,,0.01,fowsr,2013-11-29 07:10:00,
2013-11-29 02:15:00,26.8,22.8,39.16,East,90,0.0,0.0,79,0.00,,,0.01,fowsr,2013-11-29 07:15:00,
2013-11-29 02:20:00,26.8,22.8,39.16,East,90,0.0,0.0,79,0.00,,,0.01,fowsr,2013-11-29 07:20:00,
2013-11-29 02:25:00,26.6,22.6,39.16,East,90,0.0,0.0,79,0.00,,,0.01,fowsr,2013-11-29 07:25:00,
2013-11-29 02:30:00,26.6,22.6,39.16,East,90,0.0,0.0,79,0.00,,,0.01,fowsr,2013-11-29 07:30:00,
2013-11-29 02:35:00,26.6,22.6,39.16,East,90,0.0,0.0,79,0.00,,,0.01,fowsr,2013-11-29 07:35:00,
2013-11-29 02:40:00,26.6,22.6,39.16,East,90,0.0,0.0,79,0.00,,,0.01,fowsr,2013-11-29 07:40:00,
2013-11-29 02:45:00,26.6,22.6,39.16,East,90,0.0,0.0,79,0.00,,,0.01,fowsr,2013-11-29 07:45:00,
2013-11-29 02:50:00,26.6,22.6,39.16,East,90,0.0,0.0,79,0.00,,,0.01,fowsr,2013-11-29 07:50:00,
2013-11-29 02:55:00,26.6,22.6,39.16,East,90,0.0,0.0,79,0.00,,,0.01,fowsr,2013-11-29 07:55:00,
2013-11-29 03:00:00,26.6,22.6,39.16,East,90,0.0,0.0,79,0.00,,,0.01,fowsr,2013-11-29 08:00:00,
2013-11-29 03:05:00,26.6,22.6,39.16,East,90,0.0,0.0,79,0.00,,,0.01,fowsr,2013-11-29 08:05:00,
2013-11-29 03:10:00,26.4,22.9,39.31,East,90,0.0,0.0,81,0.00,,,0.01,fowsr,2013-11-29 08:10:00,
2013-11-29 03:15:00,26.4,22.9,39.46,East,90,0.0,0.0,81,0.00,,,0.01,fowsr,2013-11-29 08:15:00,
2013-11-29 03:20:00,26.2,22.7,39.64,East,90,0.0,0.0,81,0.00,,,0.01,fowsr,2013-11-29 08:20:00,
2013-11-29 03:25:00,26.2,22.7,39.83,East,90,0.0,0.0,81,0.00,,,0.01,fowsr,2013-11-29 08:25:00,
2013-11-29 03:30:00,26.2,22.7,40.07,East,90,0.0,0.0,81,0.00,,,0.01,fowsr,2013-11-29 08:30:00,
2013-11-29 03:35:00,26.2,22.7,40.26,East,90,0.0,0.0,81,0.00,,,0.01,fowsr,2013-11-29 08:35:00,
2013-11-29 03:40:00,26.2,22.7,40.40,East,90,0.0,0.0,81,0.00,,,0.01,fowsr,2013-11-29 08:40:00,
2013-11-29 03:45:00,26.1,22.5,40.59,East,90,0.0,0.0,81,0.00,,,0.01,fowsr,2013-11-29 08:45:00,
2013-11-29 03:50:00,26.1,22.5,40.78,East,90,0.0,0.0,81,0.00,,,0.01,fowsr,2013-11-29 08:50:00,
2013-11-29 03:55:00,26.1,22.7,40.96,East,90,0.0,0.0,82,0.00,,,0.01,fowsr,2013-11-29 08:55:00,
2013-11-29 04:00:00,26.1,22.7,41.20,East,90,0.0,0.0,82,0.00,,,0.01,fowsr,2013-11-29 09:00:00,
2013-11-29 04:05:00,26.1,22.7,41.29,East,90,0.0,0.0,82,0.00,,,0.01,fowsr,2013-11-29 09:05:00,
2013-11-29 04:10:00,26.1,22.7,41.53,East,90,0.0,0.0,82,0.00,,,0.01,fowsr,2013-11-29 09:10:00,
2013-11-29 04:15:00,26.1,22.7,41.63,East,90,0.0,0.0,82,0.00,,,0.01,fowsr,2013-11-29 09:15:00,
2013-11-29 04:20:00,26.1,22.7,41.86,East,90,0.0,0.0,82,0.00,,,0.01,fowsr,2013-11-29 09:20:00,
2013-11-29 04:25:00,25.9,22.6,42.19,East,90,0.0,0.0,82,0.00,,,0.01,fowsr,2013-11-29 09:25:00,
2013-11-29 04:30:00,25.9,22.6,42.33,East,90,0.0,0.0,82,0.00,,,0.01,fowsr,2013-11-29 09:30:00,
2013-11-29 04:35:00,25.9,22.6,42.53,East,90,0.0,0.0,82,0.00,,,0.01,fowsr,2013-11-29 09:35:00,
2013-11-29 04:40:00,25.9,22.6,42.67,East,90,0.0,0.0,82,0.00,,,0.01,fowsr,2013-11-29 09:40:00,
2013-11-29 04:45:00,25.9,22.6,42.90,East,90,0.0,0.0,82,0.00,,,0.01,fowsr,2013-11-29 09:45:00,
2013-11-29 04:50:00,25.7,22.6,43.19,East,90,0.0,0.0,83,0.00,,,0.01,fowsr,2013-11-29 09:50:00,
2013-11-29 04:55:00,25.7,22.6,43.33,East,90,0.0,0.0,83,0.00,,,0.01,fowsr,2013-11-29 09:55:00,
2013-11-29 05:00:00,25.7,22.6,43.42,East,90,0.0,0.0,83,0.00,,,0.01,fowsr,2013-11-29 10:00:00,
2013-11-29 05:05:00,25.7,22.6,43.71,East,90,0.0,0.0,83,0.00,,,0.01,fowsr,2013-11-29 10:05:00,
2013-11-29 05:10:00,25.5,22.4,43.85,East,90,0.0,0.0,83,0.00,,,0.01,fowsr,2013-11-29 10:10:00,
2013-11-29 05:15:00,25.5,22.4,44.04,East,90,0.0,0.0,83,0.00,,,0.01,fowsr,2013-11-29 10:15:00,
2013-11-29 05:20:00,25.5,22.4,44.23,East,90,0.0,0.0,83,0.00,,,0.01,fowsr,2013-11-29 10:20:00,
2013-11-29 05:25:00,25.5,22.4,44.46,East,90,0.0,0.0,83,0.00,,,0.01,fowsr,2013-11-29 10:25:00,
2013-11-29 05:30:00,25.5,22.4,44.61,East,90,0.0,0.0,83,0.00,,,0.01,fowsr,2013-11-29 10:30:00,
2013-11-29 05:35:00,25.3,22.2,44.84,East,90,0.0,0.0,83,0.00,,,0.01,fowsr,2013-11-29 10:35:00,
2013-11-29 05:40:00,25.3,22.2,45.03,East,90,0.0,0.0,83,0.00,,,0.01,fowsr,2013-11-29 10:40:00,
2013-11-29 05:45:00,25.3,22.4,45.27,East,90,0.0,0.0,84,0.00,,,0.01,fowsr,2013-11-29 10:45:00,
2013-11-29 05:50:00,25.3,22.4,45.46,East,90,0.0,0.0,84,0.00,,,0.01,fowsr,2013-11-29 10:50:00,
2013-11-29 05:55:00,25.3,22.4,45.60,East,90,0.0,0.0,84,0.00,,,0.01,fowsr,2013-11-29 10:55:00,
2013-11-29 06:00:00,25.3,22.4,45.75,East,90,0.0,0.0,84,0.00,,,0.01,fowsr,2013-11-29 11:00:00,
2013-11-29 06:05:00,25.3,22.4,45.84,East,90,0.0,0.0,84,0.00,,,0.01,fowsr,2013-11-29 11:05:00,
2013-11-29 06:10:00,25.3,22.4,46.08,East,90,0.0,0.0,84,0.00,,,0.01,fowsr,2013-11-29 11:10:00,
2013-11-29 06:15:00,25.3,22.4,46.27,East,90,0.0,0.0,84,0.00,,,0.01,fowsr,2013-11-29 11:15:00,
2013-11-29 06:20:00,25.2,22.3,46.37,East,90,0.0,0.0,84,0.00,,,0.01,fowsr,2013-11-29 11:20:00,
2013-11-29 06:25:00,25.2,22.3,46.17,East,90,0.0,0.0,84,0.00,,,0.01,fowsr,2013-11-29 11:25:00,
2013-11-29 06:30:00,25.2,22.3,45.51,East,90,0.0,0.0,84,0.00,,,0.01,fowsr,2013-11-29 11:30:00,
2013-11-29 06:35:00,25.2,22.3,44.66,East,90,0.0,0.0,84,0.00,,,0.01,fowsr,2013-11-29 11:35:00,
2013-11-29 06:40:00,25.0,22.1,43.81,East,90,0.0,0.0,84,0.00,,,0.01,fowsr,2013-11-29 11:40:00,
2013-11-29 06:45:00,25.0,22.1,42.72,East,90,0.0,0.0,84,0.00,,,0.01,fowsr,2013-11-29 11:45:00,
2013-11-29 06:50:00,25.0,22.1,41.73,East,90,0.0,0.0,84,0.00,,,0.01,fowsr,2013-11-29 11:50:00,
2013-11-29 06:55:00,25.0,22.1,40.78,East,90,0.0,0.0,84,0.00,,,0.01,fowsr,2013-11-29 11:55:00,
2013-11-29 07:00:00,25.0,22.1,39.93,East,90,0.0,0.0,84,0.00,,,0.01,fowsr,2013-11-29 12:00:00,
2013-11-29 07:05:00,24.8,21.9,39.22,East,90,0.0,0.0,84,0.00,,,0.01,fowsr,2013-11-29 12:05:00,
2013-11-29 07:10:00,24.8,22.1,39.22,East,90,0.0,0.0,85,0.00,,,0.01,fowsr,2013-11-29 12:10:00,
2013-11-29 07:15:00,24.8,22.1,39.22,East,90,0.0,0.0,85,0.00,,,0.01,fowsr,2013-11-29 12:15:00,
2013-11-29 07:20:00,24.8,22.1,39.22,East,90,0.0,0.0,85,0.00,,,0.01,fowsr,2013-11-29 12:20:00,
2013-11-29 07:25:00,24.8,22.1,39.22,East,90,0.0,0.0,85,0.00,,,0.01,fowsr,2013-11-29 12:25:00,
2013-11-29 07:30:00,25.0,22.3,39.22,East,90,0.0,0.0,85,0.00,,,0.01,fowsr,2013-11-29 12:30:00,
2013-11-29 07:35:00,25.0,22.3,39.22,East,90,0.0,0.0,85,0.00,,,0.01,fowsr,2013-11-29 12:35:00,
2013-11-29 07:40:00,25.0,22.3,39.22,East,90,0.0,0.0,85,0.00,,,0.01,fowsr,2013-11-29 12:40:00,
2013-11-29 07:45:00,25.0,22.3,39.22,East,90,0.0,0.0,85,0.00,,,0.01,fowsr,2013-11-29 12:45:00,
2013-11-29 07:50:00,25.0,22.3,39.22,East,90,0.0,0.0,85,0.00,,,0.01,fowsr,2013-11-29 12:50:00,
2013-11-29 07:55:00,25.2,22.6,39.22,East,90,0.0,0.0,86,0.00,,,0.01,fowsr,2013-11-29 12:55:00,
2013-11-29 08:00:00,25.2,22.6,39.22,East,90,0.0,0.0,86,0.00,,,0.01,fowsr,2013-11-29 13:00:00,
2013-11-29 08:05:00,25.5,23.0,39.22,East,90,0.0,0.0,86,0.00,,,0.01,fowsr,2013-11-29 13:05:00,
2013-11-29 08:10:00,25.5,23.0,39.22,East,90,0.0,0.0,86,0.00,,,0.01,fowsr,2013-11-29 13:10:00,
2013-11-29 08:15:00,25.7,23.2,39.22,East,90,0.0,0.0,86,0.00,,,0.01,fowsr,2013-11-29 13:15:00,
2013-11-29 08:20:00,25.9,23.5,39.22,East,90,0.0,0.0,87,0.00,,,0.01,fowsr,2013-11-29 13:20:00,
2013-11-29 08:25:00,26.2,23.9,39.22,East,90,0.0,0.0,87,0.00,,,0.01,fowsr,2013-11-29 13:25:00,
2013-11-29 08:30:00,26.4,24.1,39.22,East,90,0.0,0.0,87,0.00,,,0.01,fowsr,2013-11-29 13:30:00,
2013-11-29 08:35:00,26.6,24.1,39.22,East,90,0.0,0.0,86,0.00,,,0.01,fowsr,2013-11-29 13:35:00,
2013-11-29 08:40:00,27.0,24.6,39.22,East,90,0.0,0.0,87,0.00,,,0.01,fowsr,2013-11-29 13:40:00,
2013-11-29 08:45:00,27.3,25.0,39.22,East,90,0.0,0.0,87,0.00,,,0.01,fowsr,2013-11-29 13:45:00,
2013-11-29 08:50:00,27.7,25.3,39.22,East,90,0.0,0.0,87,0.00,,,0.01,fowsr,2013-11-29 13:50:00,
2013-11-29 08:55:00,28.2,26.0,39.22,East,90,0.0,0.0,88,0.00,,,0.01,fowsr,2013-11-29 13:55:00,
2013-11-29 09:00:00,28.6,27.1,39.22,East,90,0.0,0.0,92,0.00,,,0.01,fowsr,2013-11-29 14:00:00,
2013-11-29 09:05:00,29.3,27.9,39.22,East,90,0.0,0.0,92,0.00,,,0.01,fowsr,2013-11-29 14:05:00,
2013-11-29 09:10:00,30.0,28.6,39.22,East,90,0.0,0.0,92,0.00,,,0.01,fowsr,2013-11-29 14:10:00,
2013-11-29 09:15:00,30.9,29.5,39.22,SE,135,0.0,0.0,92,0.00,,,0.01,fowsr,2013-11-29 14:15:00,
2013-11-29 09:20:00,31.8,30.4,39.18,South,180,0.0,0.0,92,0.00,,,0.01,fowsr,2013-11-29 14:20:00,
2013-11-29 09:25:00,32.9,31.0,39.42,East,90,0.0,0.0,90,0.00,,,0.01,fowsr,2013-11-29 14:25:00,
2013-11-29 09:30:00,34.2,32.1,39.51,SE,135,0.0,0.7,89,0.00,,,0.01,fowsr,2013-11-29 14:30:00,
2013-11-29 09:35:00,36.0,33.2,39.75,North,0,0.0,0.7,86,0.00,,,0.01,fowsr,2013-11-29 14:35:00,
2013-11-29 09:40:00,37.8,35.4,39.89,SE,135,0.0,0.0,88,0.00,,,0.01,fowsr,2013-11-29 14:40:00,
2013-11-29 09:45:00,39.9,36.2,39.98,SE,135,0.0,0.0,82,0.00,,,0.01,fowsr,2013-11-29 14:45:00,
2013-11-29 09:50:00,41.2,35.3,39.98,NE,45,0.0,0.7,73,0.00,,,0.01,fowsr,2013-11-29 14:50:00,
2013-11-29 09:55:00,41.9,34.5,40.03,SW,225,0.7,1.6,67,0.00,,,0.01,fowsr,2013-11-29 14:55:00,
2013-11-29 10:00:00,42.6,33.8,40.03,North,0,0.0,0.7,62,0.00,,,0.01,fowsr,2013-11-29 15:00:00,
2013-11-29 10:05:00,43.7,33.3,40.03,SE,135,0.7,1.6,57,0.00,,,0.01,fowsr,2013-11-29 15:05:00,
2013-11-29 10:10:00,44.6,34.4,40.03,SE,135,0.0,0.0,58,0.00,,,0.01,fowsr,2013-11-29 15:10:00,
2013-11-29 10:15:00,45.9,35.3,40.03,NW,315,0.0,2.2,57,0.00,,,0.01,fowsr,2013-11-29 15:15:00,
2013-11-29 10:20:00,46.6,34.9,39.94,North,0,0.0,0.0,54,0.00,,,0.01,fowsr,2013-11-29 15:20:00,
2013-11-29 10:25:00,46.9,33.5,39.94,South,180,0.0,0.7,49,0.00,,,0.01,fowsr,2013-11-29 15:25:00,
2013-11-29 10:30:00,47.1,32.9,39.94,East,90,0.0,0.7,47,0.00,,,0.01,fowsr,2013-11-29 15:30:00,
2013-11-29 10:35:00,47.8,34.0,39.94,East,90,0.0,0.7,48,0.00,,,0.01,fowsr,2013-11-29 15:35:00,
2013-11-29 10:40:00,48.6,33.1,39.84,North,0,1.6,2.2,44,0.00,,,0.01,fowsr,2013-11-29 15:40:00,
2013-11-29 10:45:00,48.7,32.0,39.75,SW,225,0.0,0.7,41,0.00,,,0.01,fowsr,2013-11-29 15:45:00,
2013-11-29 10:50:00,49.3,32.9,39.56,South,180,0.7,2.2,42,0.00,,,0.01,fowsr,2013-11-29 15:50:00,
2013-11-29 10:55:00,49.6,32.8,39.51,South,180,0.7,2.2,41,0.00,,,0.01,fowsr,2013-11-29 15:55:00,
2013-11-29 11:00:00,50.0,31.3,39.42,West,270,0.0,0.7,37,0.00,,,0.01,fowsr,2013-11-29 16:00:00,
2013-11-29 11:05:00,50.5,33.1,39.28,NW,315,0.0,2.2,40,0.00,,,0.01,fowsr,2013-11-29 16:05:00,
2013-11-29 11:10:00,51.1,33.1,39.18,SE,135,0.0,0.7,39,0.00,,,0.01,fowsr,2013-11-29 16:10:00,
2013-11-29 11:15:00,51.3,32.4,39.18,SE,135,0.0,2.2,37,0.00,,,0.01,fowsr,2013-11-29 16:15:00,
2013-11-29 11:20:00,51.4,32.0,39.18,North,0,0.0,0.7,36,0.00,,,0.01,fowsr,2013-11-29 16:20:00,
2013-11-29 11:25:00,51.4,32.5,39.18,South,180,0.7,1.6,37,0.00,,,0.01,fowsr,2013-11-29 16:25:00,
2013-11-29 11:30:00,51.1,31.7,39.18,NE,45,0.7,2.2,36,0.00,,,0.01,fowsr,2013-11-29 16:30:00,
2013-11-29 11:35:00,50.5,29.7,39.18,NW,315,0.0,0.7,33,0.00,,,0.01,fowsr,2013-11-29 16:35:00,
2013-11-29 11:40:00,50.2,29.4,39.18,West,270,0.0,0.7,33,0.00,,,0.01,fowsr,2013-11-29 16:40:00,
2013-11-29 11:45:00,50.9,31.6,39.18,NW,315,0.0,2.2,36,0.00,,,0.01,fowsr,2013-11-29 16:45:00,
2013-11-29 11:50:00,51.4,32.0,39.18,NW,315,0.0,0.7,36,0.00,,,0.01,fowsr,2013-11-29 16:50:00,
2013-11-29 11:55:00,52.2,31.6,39.18,West,270,0.0,0.0,34,0.00,,,0.01,fowsr,2013-11-29 16:55:00,
2013-11-29 12:00:00,52.7,32.1,39.18,NE,45,0.0,0.7,34,0.00,,,0.01,fowsr,2013-11-29 17:00:00,
2013-11-29 12:05:00,52.7,31.0,39.18,SW,225,0.7,2.2,32,0.00,,,0.01,fowsr,2013-11-29 17:05:00,
2013-11-29 12:10:00,52.9,31.7,39.18,NW,315,0.7,2.2,33,0.00,,,0.01,fowsr,2013-11-29 17:10:00,
2013-11-29 12:15:00,53.1,31.3,39.18,NW,315,0.0,1.6,32,0.00,,,0.01,fowsr,2013-11-29 17:15:00,
2013-11-29 12:20:00,53.2,31.5,39.18,West,270,0.7,2.2,32,0.00,,,0.01,fowsr,2013-11-29 17:20:00,
2013-11-29 12:25:00,53.1,30.8,39.18,SE,135,0.7,2.2,31,0.00,,,0.01,fowsr,2013-11-29 17:25:00,
2013-11-29 12:30:00,53.4,31.7,39.18,North,0,0.0,0.7,32,0.00,,,0.01,fowsr,2013-11-29 17:30:00,
2013-11-29 12:35:00,53.6,32.4,39.18,South,180,0.0,0.7,33,0.00,,,0.00,fowsr,2013-11-29 17:35:00,
2013-11-29 12:40:00,53.8,31.4,39.18,SE,135,1.6,3.1,31,0.00,,,0.00,fowsr,2013-11-29 17:40:00,
2013-11-29 12:45:00,53.6,30.7,39.18,SE,135,0.7,1.6,30,0.00,,,0.00,fowsr,2013-11-29 17:45:00,
2013-11-29 12:50:00,54.1,31.7,39.18,South,180,0.0,0.7,31,0.00,,,0.00,fowsr,2013-11-29 17:50:00,
2013-11-29 12:55:00,54.5,32.0,39.18,North,0,0.0,0.7,31,0.00,,,0.00,fowsr,2013-11-29 17:55:00,
2013-11-29 13:00:00,54.7,31.6,39.18,West,270,0.7,2.2,30,0.00,,,0.00,fowsr,2013-11-29 18:00:00,
2013-11-29 13:05:00,54.7,31.6,39.18,SE,135,0.7,3.1,30,0.00,,,0.00,fowsr,2013-11-29 18:05:00,
2013-11-29 13:10:00,54.7,31.6,39.18,NW,315,0.0,0.7,30,0.00,,,0.00,fowsr,2013-11-29 18:10:00,
2013-11-29 13:15:00,54.7,31.6,39.18,SE,135,0.0,0.7,30,0.00,,,0.00,fowsr,2013-11-29 18:15:00,
2013-11-29 13:20:00,54.9,31.7,39.18,SE,135,0.0,1.6,30,0.00,,,0.00,fowsr,2013-11-29 18:20:00,
2013-11-29 13:25:00,55.2,32.0,39.18,South,180,0.0,1.6,30,0.00,,,0.00,fowsr,2013-11-29 18:25:00,
2013-11-29 13:30:00,55.2,31.4,39.18,NW,315,0.7,1.6,29,0.00,,,0.00,fowsr,2013-11-29 18:30:00,
2013-11-29 13:35:00,54.7,30.4,39.18,NW,315,0.0,0.7,28,0.00,,,0.00,fowsr,2013-11-29 18:35:00,
2013-11-29 13:40:00,54.7,30.4,39.18,SW,225,0.0,1.6,28,0.00,,,0.00,fowsr,2013-11-29 18:40:00,
2013-11-29 13:45:00,54.7,30.4,39.18,SE,135,0.0,0.7,28,0.00,,,0.00,fowsr,2013-11-29 18:45:00,
2013-11-29 13:50:00,55.0,31.3,39.18,NW,315,0.0,0.7,29,0.00,,,0.00,fowsr,2013-11-29 18:50:00,
2013-11-29 13:55:00,55.2,31.4,39.18,West,270,0.0,0.7,29,0.00,,,0.00,fowsr,2013-11-29 18:55:00,
2013-11-29 14:00:00,54.9,31.1,39.18,South,180,0.0,0.7,29,0.00,,,0.00,fowsr,2013-11-29 19:00:00,
2013-11-29 14:05:00,54.9,31.1,39.18,East,90,0.0,0.7,29,0.00,,,0.00,fowsr,2013-11-29 19:05:00,
2013-11-29 14:10:00,54.5,30.8,39.18,East,90,0.0,0.7,29,0.00,,,0.00,fowsr,2013-11-29 19:10:00,
2013-11-29 14:15:00,54.1,30.5,39.18,NE,45,0.0,0.0,29,0.00,,,0.00,fowsr,2013-11-29 19:15:00,
2013-11-29 14:20:00,54.1,31.1,39.18,South,180,0.0,0.7,30,0.00,,,0.00,fowsr,2013-11-29 19:20:00,
2013-11-29 14:25:00,54.5,31.4,39.18,SE,135,0.7,3.1,30,0.00,,,0.00,fowsr,2013-11-29 19:25:00,
2013-11-29 14:30:00,54.7,31.6,39.18,SE,135,0.0,0.7,30,0.00,,,0.00,fowsr,2013-11-29 19:30:00,
2013-11-29 14:35:00,54.9,31.7,39.18,SSE,157,1.6,3.1,30,0.00,,,0.00,fowsr,2013-11-29 19:35:00,
2013-11-29 14:40:00,55.0,31.9,39.18,South,180,0.0,0.7,30,0.00,,,0.00,fowsr,2013-11-29 19:40:00,
2013-11-29 14:45:00,55.0,31.9,39.18,NW,315,0.0,0.0,30,0.00,,,0.00,fowsr,2013-11-29 19:45:00,
2013-11-29 14:50:00,54.5,30.8,39.18,SE,135,0.0,0.7,29,0.00,,,0.00,fowsr,2013-11-29 19:50:00,
2013-11-29 14:55:00,53.6,30.7,39.18,West,270,0.0,0.7,30,0.00,,,0.00,fowsr,2013-11-29 19:55:00,
2013-11-29 15:00:00,53.4,31.1,39.18,West,270,0.0,0.0,31,0.00,,,0.00,fowsr,2013-11-29 20:00:00,
2013-11-29 15:05:00,53.2,31.5,39.18,West,270,0.0,0.7,32,0.00,,,0.00,fowsr,2013-11-29 20:05:00,
2013-11-29 15:10:00,53.2,31.5,39.18,SW,225,0.0,0.7,32,0.00,,,0.00,fowsr,2013-11-29 20:10:00,
2013-11-29 15:15:00,53.4,32.7,39.18,SE,135,0.0,1.6,34,0.00,,,0.00,fowsr,2013-11-29 20:15:00,
2013-11-29 15:20:00,53.1,31.9,39.18,East,90,0.0,0.7,33,0.00,,,0.00,fowsr,2013-11-29 20:20:00,
2013-11-29 15:25:00,52.5,31.4,39.18,North,0,0.0,0.0,33,0.00,,,0.00,fowsr,2013-11-29 20:25:00,
2013-11-29 15:30:00,52.3,31.8,39.18,SE,135,0.0,0.0,34,0.00,,,0.00,fowsr,2013-11-29 20:30:00,
2013-11-29 15:35:00,52.2,31.6,39.18,SE,135,0.0,0.7,34,0.00,,,0.00,fowsr,2013-11-29 20:35:00,
2013-11-29 15:40:00,52.0,31.5,39.18,West,270,0.0,0.7,34,0.00,,,0.00,fowsr,2013-11-29 20:40:00,
2013-11-29 15:45:00,51.6,31.7,39.18,West,270,0.0,0.0,35,0.00,,,0.00,fowsr,2013-11-29 20:45:00,
2013-11-29 15:50:00,51.3,31.9,39.18,SE,135,0.0,0.7,36,0.00,,,0.00,fowsr,2013-11-29 20:50:00,
2013-11-29 15:55:00,50.7,31.9,39.18,SE,135,0.0,0.7,37,0.00,,,0.00,fowsr,2013-11-29 20:55:00,
2013-11-29 16:00:00,50.4,33.0,39.18,SE,135,0.0,0.0,40,0.00,,,0.00,fowsr,2013-11-29 21:00:00,
2013-11-29 16:05:00,49.8,32.9,39.18,West,270,0.0,0.0,41,0.00,,,0.00,fowsr,2013-11-29 21:05:00,
2013-11-29 16:10:00,49.5,32.6,39.18,SE,135,0.0,0.0,41,0.00,,,0.00,fowsr,2013-11-29 21:10:00,
2013-11-29 16:15:00,48.9,32.6,39.18,West,270,0.0,0.7,42,0.00,,,0.00,fowsr,2013-11-29 21:15:00,
2013-11-29 16:20:00,48.6,32.2,39.18,South,180,0.0,0.0,42,0.00,,,0.00,fowsr,2013-11-29 21:20:00,
2013-11-29 16:25:00,48.2,31.9,39.18,South,180,0.0,0.0,42,0.00,,,0.00,fowsr,2013-11-29 21:25:00,
2013-11-29 16:30:00,47.8,32.4,39.18,West,270,0.0,0.7,44,0.00,,,0.00,fowsr,2013-11-29 21:30:00,
2013-11-29 16:35:00,47.5,32.1,39.18,SE,135,0.7,2.2,44,0.00,,,0.00,fowsr,2013-11-29 21:35:00,
2013-11-29 16:40:00,47.3,31.9,39.18,SW,225,0.0,0.0,44,0.00,,,0.00,fowsr,2013-11-29 21:40:00,
2013-11-29 16:45:00,46.9,32.0,39.18,South,180,0.0,0.0,45,0.00,,,0.00,fowsr,2013-11-29 21:45:00,
2013-11-29 16:50:00,46.6,31.7,39.18,South,180,0.0,0.0,45,0.00,,,0.00,fowsr,2013-11-29 21:50:00,
2013-11-29 16:55:00,46.2,31.7,39.18,South,180,0.0,0.0,46,0.00,,,0.00,fowsr,2013-11-29 21:55:00,
2013-11-29 17:00:00,45.9,31.4,39.18,South,180,0.0,0.0,46,0.00,,,0.00,fowsr,2013-11-29 22:00:00,
2013-11-29 17:05:00,45.3,30.9,39.18,South,180,0.0,0.0,46,0.00,,,0.00,fowsr,2013-11-29 22:05:00,
2013-11-29 17:10:00,45.0,31.4,39.18,South,180,0.0,0.0,48,0.00,,,0.00,fowsr,2013-11-29 22:10:00,
2013-11-29 17:15:00,44.6,31.0,39.18,South,180,0.0,0.0,48,0.00,,,0.00,fowsr,2013-11-29 22:15:00,
2013-11-29 17:20:00,44.2,31.1,39.18,South,180,0.0,0.0,49,0.00,,,0.00,fowsr,2013-11-29 22:20:00,
2013-11-29 17:25:00,43.7,30.9,39.18,South,180,0.0,0.0,50,0.00,,,0.00,fowsr,2013-11-29 22:25:00,
2013-11-29 17:30:00,43.3,30.6,39.18,South,180,0.0,0.0,50,0.00,,,0.00,fowsr,2013-11-29 22:30:00,
2013-11-29 17:35:00,43.0,30.6,39.18,South,180,0.0,0.0,51,0.00,,,0.00,fowsr,2013-11-29 22:35:00,
2013-11-29 17:40:00,42.6,31.0,39.18,South,180,0.0,0.0,53,0.00,,,0.00,fowsr,2013-11-29 22:40:00,
2013-11-29 17:45:00,42.1,30.8,39.18,South,180,0.0,0.0,54,0.00,,,0.00,fowsr,2013-11-29 22:45:00,
2013-11-29 17:50:00,41.7,30.5,39.18,South,180,0.0,0.0,54,0.00,,,0.00,fowsr,2013-11-29 22:50:00,
2013-11-29 17:55:00,41.4,30.5,39.18,South,180,0.0,0.0,55,0.00,,,0.00,fowsr,2013-11-29 22:55:00,
2013-11-29 18:00:00,41.2,30.6,39.18,South,180,0.0,0.0,56,0.00,,,0.00,fowsr,2013-11-29 23:00:00,
2013-11-29 18:05:00,40.6,30.4,39.18,South,180,0.0,0.0,57,0.00,,,0.00,fowsr,2013-11-29 23:05:00,
2013-11-29 18:10:00,40.3,30.4,39.18,South,180,0.0,0.0,58,0.00,,,0.00,fowsr,2013-11-29 23:10:00,
2013-11-29 18:15:00,40.1,30.5,39.18,South,180,0.0,0.0,59,0.00,,,0.00,fowsr,2013-11-29 23:15:00,
2013-11-29 18:20:00,39.7,30.5,39.18,South,180,0.0,0.0,60,0.00,,,0.00,fowsr,2013-11-29 23:20:00,
2013-11-29 18:25:00,39.4,30.4,39.18,South,180,0.0,0.0,61,0.00,,,0.00,fowsr,2013-11-29 23:25:00,
2013-11-29 18:30:00,39.0,30.4,39.18,South,180,0.0,0.0,62,0.00,,,0.00,fowsr,2013-11-29 23:30:00,
2013-11-29 18:35:00,38.8,30.2,39.18,South,180,0.0,0.0,62,0.00,,,0.00,fowsr,2013-11-29 23:35:00,
2013-11-29 18:40:00,38.5,29.9,39.18,South,180,0.0,0.0,62,0.00,,,0.00,fowsr,2013-11-29 23:40:00,
2013-11-29 18:45:00,38.3,30.0,39.18,South,180,0.0,0.0,63,0.00,,,0.00,fowsr,2013-11-29 23:45:00,
2013-11-29 18:50:00,38.1,29.8,39.18,South,180,0.0,0.0,63,0.00,,,0.00,fowsr,2013-11-29 23:50:00,
2013-11-29 18:55:00,37.8,29.5,39.18,South,180,0.0,0.0,63,0.00,,,0.00,fowsr,2013-11-29 23:55:00,
2013-11-29 19:00:00,37.6,29.3,39.18,South,180,0.0,0.0,63,0.00,,,0.00,fowsr,2013-11-30 00:00:00,
2013-11-29 19:05:00,37.4,29.4,39.18,South,180,0.0,0.0,64,0.00,,,0.00,fowsr,2013-11-30 00:05:00,
2013-11-29 19:10:00,37.2,28.1,39.18,South,180,0.0,0.0,60,0.00,,,0.00,fowsr,2013-11-30 00:10:00,
2013-11-29 19:15:00,37.0,28.0,39.18,South,180,0.0,0.0,60,0.00,,,0.00,fowsr,2013-11-30 00:15:00,
2013-11-29 19:20:00,36.9,27.8,39.18,South,180,0.0,0.0,60,0.00,,,0.00,fowsr,2013-11-30 00:20:00,
2013-11-29 19:25:00,36.7,27.6,39.18,South,180,0.0,0.0,60,0.00,,,0.00,fowsr,2013-11-30 00:25:00,
2013-11-29 19:30:00,36.5,27.5,39.18,South,180,0.0,0.0,60,0.00,,,0.00,fowsr,2013-11-30 00:30:00,
2013-11-29 19:35:00,36.5,27.7,39.18,South,180,0.0,0.0,61,0.00,,,0.00,fowsr,2013-11-30 00:35:00,
2013-11-29 19:40:00,36.3,27.6,39.18,South,180,0.0,0.0,61,0.00,,,0.00,fowsr,2013-11-30 00:40:00,
2013-11-29 19:45:00,36.1,27.4,39.18,South,180,0.0,0.0,61,0.00,,,0.00,fowsr,2013-11-30 00:45:00,
2013-11-29 19:50:00,36.1,27.4,39.18,South,180,0.0,0.0,61,0.00,,,0.00,fowsr,2013-11-30 00:50:00,
2013-11-29 19:55:00,36.0,27.5,39.18,South,180,0.0,0.0,62,0.00,,,0.00,fowsr,2013-11-30 00:55:00,
2013-11-29 20:00:00,35.8,27.3,39.18,South,180,0.0,0.0,62,0.00,,,0.00,fowsr,2013-11-30 01:00:00,
2013-11-29 20:05:00,35.8,27.3,39.18,South,180,0.0,0.0,62,0.00,,,0.00,fowsr,2013-11-30 01:05:00,
2013-11-29 20:10:00,35.6,27.2,39.18,South,180,0.0,0.0,62,0.00,,,0.00,fowsr,2013-11-30 01:10:00,
2013-11-29 20:15:00,35.4,27.5,39.18,South,180,0.0,0.0,64,0.00,,,0.00,fowsr,2013-11-30 01:15:00,
2013-11-29 20:20:00,35.2,27.4,39.18,South,180,0.0,0.0,64,0.00,,,0.00,fowsr,2013-11-30 01:20:00,
2013-11-29 20:25:00,35.1,27.2,39.18,South,180,0.0,0.0,64,0.00,,,0.00,fowsr,2013-11-30 01:25:00,
2013-11-29 20:30:00,34.9,27.3,39.18,South,180,0.0,0.0,65,0.00,,,0.00,fowsr,2013-11-30 01:30:00,
2013-11-29 20:35:00,34.7,27.1,39.18,South,180,0.0,0.0,65,0.00,,,0.00,fowsr,2013-11-30 01:35:00,
2013-11-29 20:40:00,34.5,27.0,39.18,South,180,0.0,0.0,65,0.00,,,0.00,fowsr,2013-11-30 01:40:00,
2013-11-29 20:45:00,34.5,27.0,39.18,South,180,0.0,0.0,65,0.00,,,0.00,fowsr,2013-11-30 01:45:00,
2013-11-29 20:50:00,34.5,27.2,39.18,South,180,0.0,0.0,66,0.00,,,0.00,fowsr,2013-11-30 01:50:00,
2013-11-29 20:55:00,34.5,27.2,39.18,South,180,0.0,0.0,66,0.00,,,0.00,fowsr,2013-11-30 01:55:00,
2013-11-29 21:00:00,34.3,27.0,39.18,South,180,0.0,0.0,66,0.00,,,0.00,fowsr,2013-11-30 02:00:00,
2013-11-29 21:05:00,34.3,27.0,39.18,South,180,0.0,0.0,66,0.00,,,0.00,fowsr,2013-11-30 02:05:00,
2013-11-29 21:10:00,34.2,26.9,39.18,South,180,0.0,0.0,66,0.00,,,0.00,fowsr,2013-11-30 02:10:00,
2013-11-29 21:15:00,34.2,26.9,39.18,South,180,0.0,0.0,66,0.00,,,0.00,fowsr,2013-11-30 02:15:00,
2013-11-29 21:20:00,34.2,26.9,39.18,South,180,0.0,0.0,66,0.00,,,0.00,fowsr,2013-11-30 02:20:00,
2013-11-29 21:25:00,34.2,26.9,39.18,South,180,0.0,0.0,66,0.00,,,0.00,fowsr,2013-11-30 02:25:00,
2013-11-29 21:30:00,34.2,26.9,39.18,South,180,0.0,0.0,66,0.00,,,0.00,fowsr,2013-11-30 02:30:00,
2013-11-29 21:35:00,34.2,26.9,39.18,South,180,0.0,0.0,66,0.00,,,0.00,fowsr,2013-11-30 02:35:00,
2013-11-29 21:40:00,34.2,26.9,39.18,South,180,0.0,0.0,66,0.00,,,0.00,fowsr,2013-11-30 02:40:00,
2013-11-29 21:45:00,34.0,26.7,39.18,South,180,0.0,0.0,66,0.00,,,0.00,fowsr,2013-11-30 02:45:00,
2013-11-29 21:50:00,34.0,26.4,39.18,South,180,0.0,0.0,65,0.00,,,0.00,fowsr,2013-11-30 02:50:00,
2013-11-29 21:55:00,34.0,26.4,39.18,SSE,157,0.0,0.0,65,0.00,,,0.00,fowsr,2013-11-30 02:55:00,
2013-11-29 22:00:00,34.2,26.6,39.18,SSE,157,0.0,0.0,65,0.00,,,0.00,fowsr,2013-11-30 03:00:00,
2013-11-29 22:05:00,34.2,26.6,39.18,SSE,157,0.0,0.0,65,0.00,,,0.00,fowsr,2013-11-30 03:05:00,
2013-11-29 22:10:00,34.2,26.6,39.18,SSE,157,0.0,0.0,65,0.00,,,0.00,fowsr,2013-11-30 03:10:00,
2013-11-29 22:15:00,34.2,26.4,39.18,South,180,0.0,0.0,64,0.00,,,0.00,fowsr,2013-11-30 03:15:00,
2013-11-29 22:20:00,34.3,26.5,39.18,South,180,0.0,0.0,64,0.00,,,0.00,fowsr,2013-11-30 03:20:00,
2013-11-29 22:25:00,34.3,26.5,39.18,West,270,0.0,0.0,64,0.00,,,0.00,fowsr,2013-11-30 03:25:00,
2013-11-29 22:30:00,34.3,26.5,39.18,West,270,0.0,0.0,64,0.00,,,0.00,fowsr,2013-11-30 03:30:00,
2013-11-29 22:35:00,34.3,26.5,39.18,West,270,0.0,0.0,64,0.00,,,0.00,fowsr,2013-11-30 03:35:00,
2013-11-29 22:40:00,34.2,26.4,39.18,West,270,0.0,0.0,64,0.00,,,0.00,fowsr,2013-11-30 03:40:00,
2013-11-29 22:45:00,34.0,26.2,39.18,West,270,0.0,0.0,64,0.00,,,0.00,fowsr,2013-11-30 03:45:00,
2013-11-29 22:50:00,33.8,26.0,39.18,West,270,0.0,0.0,64,0.00,,,0.00,fowsr,2013-11-30 03:50:00,
2013-11-29 22:55:00,33.8,26.3,39.18,South,180,0.0,0.0,65,0.00,,,0.00,fowsr,2013-11-30 03:55:00,
2013-11-29 23:00:00,33.6,26.4,39.18,NW,315,0.0,0.0,66,0.00,,,0.00,fowsr,2013-11-30 04:00:00,
2013-11-29 23:05:00,33.8,26.3,39.18,NE,45,0.0,0.7,65,0.00,,,0.00,fowsr,2013-11-30 04:05:00,
2013-11-29 23:10:00,34.2,26.6,39.18,SE,135,0.0,1.6,65,0.00,,,0.00,fowsr,2013-11-30 04:10:00,
2013-11-29 23:15:00,34.5,27.0,39.18,SE,135,0.0,0.0,65,0.00,,,0.00,fowsr,2013-11-30 04:15:00,
2013-11-29 23:20:00,34.7,26.9,39.18,West,270,0.0,0.7,64,0.00,,,0.00,fowsr,2013-11-30 04:20:00,
2013-11-29 23:25:00,34.9,27.0,39.18,South,180,0.0,0.7,64,0.00,,,0.00,fowsr,2013-11-30 04:25:00,
2013-11-29 23:30:00,35.1,27.2,39.18,South,180,0.0,0.7,64,0.00,,,0.00,fowsr,2013-11-30 04:30:00,
2013-11-29 23:35:00,35.1,27.2,39.18,South,180,0.0,0.0,64,0.00,,,0.00,fowsr,2013-11-30 04:35:00,
2013-11-29 23:40:00,35.1,27.2,39.18,SSE,157,0.0,0.0,64,0.00,,,0.00,fowsr,2013-11-30 04:40:00,
2013-11-29 23:45:00,34.9,27.0,39.18,East,90,0.0,0.7,64,0.00,,,0.00,fowsr,2013-11-30 04:45:00,
2013-11-29 23:50:00,34.9,27.0,39.18,East,90,0.0,0.7,64,0.00,,,0.00,fowsr,2013-11-30 04:50:00,
2013-11-29 23:55:00,34.9,27.0,39.18,East,90,0.0,0.0,64,0.00,,,0.00,fowsr,2013-11-30 04:55:00,